| time (UTC) | temp F | wind direction | speed MPH | gust MPH | rain 1hr in | rain 24hr in | rain mn in | humidity % | barometer mb |
| 20260904083401 | 80 | 139 | 4.0 | 7.0 | 0.00 | 0.00 | 0.00 | 87 | 1013.7 |
| 20260904082851 | 80 | 159 | 2.0 | 3.0 | 0.00 | 0.00 | 0.00 | 87 | 1013.6 |
| 20260904082345 | 80 | 171 | 2.0 | 3.0 | 0.00 | 0.00 | 0.00 | 87 | 1013.6 |
| 20260904081841 | 80 | 173 | 2.0 | 3.0 | 0.00 | 0.00 | 0.00 | 87 | 1013.8 |
| 20260904081336 | 80 | 218 | 2.0 | 5.0 | 0.00 | 0.00 | 0.00 | 86 | 1013.7 |
| 20260904080832 | 81 | 155 | 2.0 | 3.0 | 0.00 | 0.00 | 0.00 | 86 | 1013.7 |
| 20260904080327 | 81 | 142 | 3.0 | 5.0 | 0.00 | 0.00 | 0.00 | 86 | 1013.7 |
| 20260904075823 | 81 | 155 | 2.0 | 2.0 | 0.00 | 0.00 | 0.00 | 86 | 1013.7 |
| 20260904075318 | 81 | 132 | 3.0 | 3.0 | 0.00 | 0.00 | 0.00 | 86 | 1013.8 |
| 20260904074816 | 81 | 168 | 1.0 | 2.0 | 0.00 | 0.00 | 0.00 | 86 | 1014.1 |
| 20260904074312 | 81 | 157 | 4.0 | 5.0 | 0.00 | 0.00 | 0.00 | 86 | 1014.0 |
| 20260904073808 | 81 | 144 | 3.0 | 5.0 | 0.00 | 0.00 | 0.00 | 86 | 1013.9 |
| 20260904073303 | 81 | 127 | 2.0 | 2.0 | 0.00 | 0.00 | 0.00 | 86 | 1013.8 |
| 20260904072759 | 81 | 133 | 3.0 | 3.0 | 0.00 | 0.00 | 0.00 | 85 | 1013.9 |
| 20260904072258 | 81 | 132 | 2.0 | 3.0 | 0.00 | 0.00 | 0.00 | 85 | 1013.8 |
| 20260904071754 | 81 | 148 | 2.0 | 3.0 | 0.00 | 0.00 | 0.00 | 85 | 1013.8 |
| 20260904071249 | 81 | 174 | 4.0 | 5.0 | 0.00 | 0.00 | 0.00 | 85 | 1013.8 |
| 20260904070749 | 81 | 169 | 4.0 | 5.0 | 0.00 | 0.00 | 0.00 | 85 | 1014.0 |
| 20260904070249 | 81 | 175 | 2.0 | 3.0 | 0.00 | 0.00 | 0.00 | 85 | 1013.9 |
| 20260904065749 | 81 | 158 | 2.0 | 3.0 | 0.00 | 0.00 | 0.00 | 85 | 1013.9 |
| 20260904065245 | 81 | 165 | 4.0 | 5.0 | 0.00 | 0.00 | 0.00 | 85 | 1014.0 |
| 20260904064745 | 81 | 167 | 2.0 | 3.0 | 0.00 | 0.00 | 0.00 | 85 | 1014.0 |
| 20260904064240 | 81 | 179 | 4.0 | 5.0 | 0.00 | 0.00 | 0.00 | 85 | 1013.9 |
| 20260904063736 | 81 | 164 | 2.0 | 3.0 | 0.00 | 0.00 | 0.00 | 85 | 1014.1 |
| 20260904063232 | 81 | 149 | 0.0 | 2.0 | 0.00 | 0.00 | 0.00 | 85 | 1013.8 |
| 20260904062728 | 81 | 157 | 1.0 | 2.0 | 0.00 | 0.00 | 0.00 | 84 | 1013.9 |
| 20260904062224 | 81 | 191 | 4.0 | 5.0 | 0.00 | 0.00 | 0.00 | 84 | 1013.9 |
| 20260904061719 | 81 | 176 | 5.0 | 7.0 | 0.00 | 0.00 | 0.00 | 84 | 1013.9 |
| 20260904061215 | 81 | 188 | 3.0 | 5.0 | 0.00 | 0.00 | 0.00 | 84 | 1013.8 |
| 20260904060712 | 81 | 186 | 4.0 | 5.0 | 0.00 | 0.00 | 0.00 | 84 | 1014.0 |
| 20260904060207 | 81 | 146 | 2.0 | 3.0 | 0.00 | 0.00 | 0.00 | 84 | 1013.9 |
| 20260904055702 | 81 | 160 | 3.0 | 3.0 | 0.00 | 0.00 | 0.00 | 84 | 1013.9 |
| 20260904055157 | 81 | 174 | 4.0 | 5.0 | 0.00 | 0.00 | 0.00 | 84 | 1014.0 |
| 20260904054653 | 81 | 178 | 0.0 | 2.0 | 0.00 | 0.00 | 0.00 | 83 | 1013.8 |
| 20260904054149 | 81 | 167 | 2.0 | 2.0 | 0.00 | 0.00 | 0.00 | 83 | 1013.7 |
| 20260904053649 | 81 | 160 | 4.0 | 5.0 | 0.00 | 0.00 | 0.00 | 83 | 1014.0 |
| 20260904053143 | 81 | 167 | 5.0 | 7.0 | 0.00 | 0.00 | 0.00 | 83 | 1014.0 |
| 20260904052640 | 82 | 162 | 1.0 | 2.0 | 0.00 | 0.00 | 0.00 | 82 | 1013.7 |
| 20260904052136 | 82 | 166 | 3.0 | 3.0 | 0.00 | 0.00 | 0.00 | 82 | 1013.7 |
| 20260904051633 | 82 | 151 | 2.0 | 2.0 | 0.00 | 0.00 | 0.00 | 82 | 1013.8 |
| 20260904051132 | 81 | 192 | 3.0 | 5.0 | 0.00 | 0.00 | 0.00 | 82 | 1013.9 |
| 20260904050628 | 81 | 154 | 1.0 | 2.0 | 0.00 | 0.00 | 0.00 | 82 | 1013.6 |
| 20260904050124 | 81 | 156 | 2.0 | 2.0 | 0.00 | 0.00 | 0.00 | 82 | 1013.9 |
| 20260904045619 | 81 | 130 | 3.0 | 3.0 | 0.00 | 0.00 | 0.00 | 82 | 1013.8 |
| 20260904045113 | 82 | 161 | 5.0 | 9.0 | 0.00 | 0.00 | 0.00 | 81 | 1013.9 |
| 20260904044609 | 82 | 122 | 2.0 | 3.0 | 0.00 | 0.00 | 0.00 | 81 | 1013.6 |
| 20260904044105 | 82 | 152 | 3.0 | 7.0 | 0.00 | 0.00 | 0.00 | 81 | 1013.6 |
| 20260904043602 | 82 | 191 | 2.0 | 5.0 | 0.00 | 0.00 | 0.00 | 81 | 1013.5 |
| 20260904043057 | 82 | 172 | 8.0 | 10.0 | 0.00 | 0.00 | 0.00 | 81 | 1013.6 |
| 20260904042553 | 82 | 111 | 5.0 | 7.0 | 0.00 | 0.00 | 0.00 | 81 | 1013.6 |
| 20260904042054 | 82 | 175 | 2.0 | 2.0 | 0.00 | 0.00 | 0.00 | 80 | 1013.8 |
| 20260904041549 | 82 | 169 | 2.0 | 2.0 | 0.00 | 0.00 | 0.00 | 80 | 1013.5 |
| 20260904041045 | 82 | 154 | 3.0 | 3.0 | 0.00 | 0.00 | 0.00 | 80 | 1013.5 |
| 20260904040545 | 82 | 163 | 9.0 | 14.0 | 0.00 | 0.00 | 0.00 | 80 | 1013.5 |
| 20260904040042 | 82 | 163 | 6.0 | 9.0 | 0.00 | 0.00 | 0.00 | 79 | 1013.4 |
| 20260904035537 | 82 | 169 | 2.0 | 3.0 | 0.00 | 0.00 | 0.00 | 79 | 1013.4 |
| 20260904035036 | 82 | 130 | 7.0 | 9.0 | 0.00 | 0.00 | 0.00 | 79 | 1013.5 |
| 20260904034526 | 82 | 174 | 6.0 | 9.0 | 0.00 | 0.00 | 0.00 | 79 | 1013.6 |
| 20260904034021 | 82 | 186 | 8.0 | 10.0 | 0.00 | 0.00 | 0.00 | 79 | 1013.4 |
| 20260904033518 | 82 | 128 | 6.0 | 10.0 | 0.00 | 0.00 | 0.00 | 78 | 1013.6 |
| 20260904033014 | 82 | 188 | 6.0 | 10.0 | 0.00 | 0.00 | 0.00 | 78 | 1013.5 |
| 20260904032509 | 82 | 93 | 5.0 | 5.0 | 0.00 | 0.00 | 0.00 | 78 | 1013.6 |
| 20260904032009 | 82 | 172 | 4.0 | 7.0 | 0.00 | 0.00 | 0.00 | 78 | 1013.5 |
| 20260904031504 | 82 | 140 | 6.0 | 10.0 | 0.00 | 0.00 | 0.00 | 78 | 1013.6 |
| 20260904030959 | 82 | 195 | 3.0 | 5.0 | 0.00 | 0.00 | 0.00 | 77 | 1013.5 |
| 20260904030454 | 82 | 188 | 9.0 | 10.0 | 0.00 | 0.00 | 0.00 | 77 | 1013.6 |
| 20260904025949 | 82 | 142 | 7.0 | 10.0 | 0.00 | 0.00 | 0.00 | 77 | 1013.4 |
| 20260904025446 | 82 | 159 | 4.0 | 7.0 | 0.00 | 0.00 | 0.00 | 76 | 1013.3 |
| 20260904024945 | 82 | 95 | 5.0 | 10.0 | 0.00 | 0.00 | 0.00 | 76 | 1013.3 |
| 20260904024440 | 82 | 166 | 5.0 | 9.0 | 0.00 | 0.00 | 0.00 | 76 | 1013.1 |
| 20260904023936 | 82 | 171 | 5.0 | 7.0 | 0.00 | 0.00 | 0.00 | 76 | 1013.0 |
| 20260904023432 | 82 | 152 | 5.0 | 5.0 | 0.00 | 0.00 | 0.00 | 75 | 1012.9 |
| 20260904022931 | 82 | 164 | 2.0 | 3.0 | 0.00 | 0.00 | 0.00 | 75 | 1012.9 |
| 20260904022429 | 82 | 129 | 5.0 | 5.0 | 0.00 | 0.00 | 0.00 | 75 | 1012.8 |
| 20260904021925 | 82 | 161 | 2.0 | 3.0 | 0.00 | 0.00 | 0.00 | 74 | 1012.7 |
| 20260904021420 | 82 | 123 | 2.0 | 3.0 | 0.00 | 0.00 | 0.00 | 74 | 1012.6 |
| 20260904020915 | 83 | 141 | 7.0 | 10.0 | 0.00 | 0.00 | 0.00 | 74 | 1012.7 |
| 20260904020410 | 83 | 165 | 6.0 | 9.0 | 0.00 | 0.00 | 0.00 | 73 | 1012.8 |
| 20260904015908 | 83 | 146 | 6.0 | 12.0 | 0.00 | 0.00 | 0.00 | 73 | 1012.7 |
| 20260904015404 | 83 | 147 | 5.0 | 9.0 | 0.00 | 0.00 | 0.00 | 72 | 1012.5 |
| 20260904014902 | 83 | 175 | 7.0 | 9.0 | 0.00 | 0.00 | 0.00 | 72 | 1012.4 |
| 20260904014358 | 83 | 171 | 6.0 | 10.0 | 0.00 | 0.00 | 0.00 | 72 | 1012.4 |
| 20260904013853 | 83 | 195 | 5.0 | 7.0 | 0.00 | 0.00 | 0.00 | 72 | 1012.3 |
| 20260904013349 | 83 | 155 | 3.0 | 5.0 | 0.00 | 0.00 | 0.00 | 73 | 1012.1 |
| 20260904012845 | 83 | 126 | 3.0 | 3.0 | 0.00 | 0.00 | 0.00 | 73 | 1012.1 |
| 20260904012340 | 83 | 133 | 2.0 | 3.0 | 0.00 | 0.00 | 0.00 | 73 | 1011.9 |
| 20260904011839 | 83 | 140 | 2.0 | 3.0 | 0.00 | 0.00 | 0.00 | 73 | 1012.0 |
| 20260904011334 | 84 | 151 | 5.0 | 7.0 | 0.00 | 0.00 | 0.00 | 73 | 1011.9 |
| 20260904010829 | 84 | 157 | 4.0 | 5.0 | 0.00 | 0.00 | 0.00 | 73 | 1011.9 |
| 20260904010326 | 84 | 139 | 6.0 | 9.0 | 0.00 | 0.00 | 0.00 | 74 | 1011.9 |
| 20260904005821 | 84 | 139 | 3.0 | 5.0 | 0.00 | 0.00 | 0.00 | 74 | 1011.9 |
| 20260904005317 | 84 | 131 | 3.0 | 3.0 | 0.00 | 0.00 | 0.00 | 74 | 1011.9 |
| 20260904004817 | 84 | 133 | 6.0 | 7.0 | 0.00 | 0.00 | 0.00 | 74 | 1011.9 |
| 20260904004313 | 84 | 160 | 3.0 | 3.0 | 0.00 | 0.00 | 0.00 | 73 | 1012.1 |
| 20260904003808 | 85 | 117 | 4.0 | 5.0 | 0.00 | 0.00 | 0.00 | 73 | 1012.1 |
| 20260904003304 | 85 | 119 | 3.0 | 3.0 | 0.00 | 0.00 | 0.00 | 72 | 1012.1 |
| 20260904002759 | 85 | 126 | 7.0 | 10.0 | 0.00 | 0.00 | 0.00 | 72 | 1012.4 |
| 20260904002255 | 85 | 121 | 4.0 | 9.0 | 0.00 | 0.00 | 0.00 | 71 | 1012.0 |
| 20260904001754 | 85 | 151 | 10.0 | 12.0 | 0.00 | 0.00 | 0.00 | 71 | 1012.2 |
| 20260904001249 | 85 | 154 | 4.0 | 7.0 | 0.00 | 0.00 | 0.00 | 71 | 1012.3 |
| 20260904000744 | 86 | 131 | 10.0 | 12.0 | 0.00 | 0.00 | 0.00 | 70 | 1012.2 |
| 20260904000240 | 86 | 151 | 11.0 | 15.0 | 0.00 | 0.00 | 0.00 | 70 | 1012.2 |
| 20260903235738 | 86 | 134 | 8.0 | 14.0 | 0.00 | 0.00 | 0.00 | 69 | 1011.9 |
| 20260903235235 | 87 | 118 | 6.0 | 10.0 | 0.00 | 0.00 | 0.00 | 68 | 1012.2 |
| 20260903234734 | 87 | 169 | 16.0 | 22.0 | 0.00 | 0.00 | 0.00 | 67 | 1012.0 |
| 20260903234231 | 87 | 159 | 8.0 | 12.0 | 0.00 | 0.00 | 0.00 | 67 | 1011.9 |
| 20260903233726 | 87 | 140 | 8.0 | 10.0 | 0.00 | 0.00 | 0.00 | 66 | 1011.9 |
| 20260903233222 | 88 | 168 | 16.0 | 21.0 | 0.00 | 0.00 | 0.00 | 66 | 1011.9 |
| 20260903232721 | 88 | 110 | 9.0 | 10.0 | 0.00 | 0.00 | 0.00 | 66 | 1011.8 |
| 20260903232217 | 89 | 122 | 9.0 | 10.0 | 0.00 | 0.00 | 0.00 | 65 | 1011.9 |
| 20260903231716 | 89 | 142 | 5.0 | 7.0 | 0.00 | 0.00 | 0.00 | 65 | 1011.8 |
| 20260903231212 | 89 | 171 | 10.0 | 15.0 | 0.00 | 0.00 | 0.00 | 64 | 1011.8 |
| 20260903230708 | 89 | 125 | 7.0 | 12.0 | 0.00 | 0.00 | 0.00 | 65 | 1011.6 |
| 20260903230208 | 88 | 113 | 19.0 | 22.0 | 0.00 | 0.00 | 0.00 | 64 | 1011.6 |
| 20260903225704 | 89 | 95 | 16.0 | 22.0 | 0.00 | 0.00 | 0.00 | 64 | 1011.7 |
| 20260903225200 | 89 | 168 | 13.0 | 17.0 | 0.00 | 0.00 | 0.00 | 64 | 1011.6 |
| 20260903224656 | 89 | 140 | 9.0 | 12.0 | 0.00 | 0.00 | 0.00 | 69 | 1011.6 |
| 20260903224152 | 90 | 166 | 6.0 | 10.0 | 0.00 | 0.00 | 0.00 | 70 | 1011.7 |
| 20260903223647 | 89 | 91 | 12.0 | 15.0 | 0.00 | 0.00 | 0.00 | 71 | 1011.6 |
| 20260903223146 | 89 | 118 | 11.0 | 12.0 | 0.00 | 0.00 | 0.00 | 70 | 1011.7 |
| 20260903222646 | 89 | 176 | 7.0 | 14.0 | 0.00 | 0.00 | 0.00 | 70 | 1011.4 |
| 20260903222144 | 89 | 122 | 14.0 | 21.0 | 0.00 | 0.00 | 0.00 | 70 | 1011.5 |
| 20260903221640 | 89 | 122 | 10.0 | 12.0 | 0.00 | 0.00 | 0.00 | 68 | 1011.6 |
| 20260903221138 | 89 | 91 | 12.0 | 17.0 | 0.00 | 0.00 | 0.00 | 70 | 1011.7 |
| 20260903220637 | 89 | 103 | 12.0 | 21.0 | 0.00 | 0.00 | 0.00 | 72 | 1011.6 |
| 20260903220132 | 89 | 104 | 10.0 | 12.0 | 0.00 | 0.00 | 0.00 | 71 | 1011.7 |
| 20260903215631 | 89 | 140 | 10.0 | 12.0 | 0.00 | 0.00 | 0.00 | 72 | 1011.6 |
| 20260903215126 | 90 | 106 | 13.0 | 19.0 | 0.00 | 0.00 | 0.00 | 70 | 1011.9 |
| 20260903214625 | 91 | 161 | 11.0 | 15.0 | 0.00 | 0.00 | 0.00 | 68 | 1011.7 |
| 20260903214120 | 92 | 96 | 10.0 | 14.0 | 0.00 | 0.00 | 0.00 | 65 | 1011.7 |
| 20260903213615 | 92 | 133 | 12.0 | 14.0 | 0.00 | 0.00 | 0.00 | 65 | 1011.7 |
| 20260903213111 | 92 | 147 | 15.0 | 19.0 | 0.00 | 0.00 | 0.00 | 64 | 1011.8 |
| 20260903212606 | 92 | 118 | 9.0 | 14.0 | 0.00 | 0.00 | 0.00 | 65 | 1011.9 |
| 20260903212101 | 92 | 116 | 12.0 | 17.0 | 0.00 | 0.00 | 0.00 | 65 | 1011.9 |
| 20260903211556 | 91 | 182 | 8.0 | 10.0 | 0.00 | 0.00 | 0.00 | 66 | 1011.9 |
| 20260903211053 | 90 | 104 | 12.0 | 17.0 | 0.00 | 0.00 | 0.00 | 67 | 1011.8 |
| 20260903210548 | 89 | 158 | 8.0 | 10.0 | 0.00 | 0.00 | 0.00 | 68 | 1012.0 |
| 20260903210044 | 90 | 156 | 13.0 | 15.0 | 0.00 | 0.00 | 0.00 | 67 | 1011.9 |
| 20260903205543 | 90 | 126 | 19.0 | 22.0 | 0.00 | 0.00 | 0.00 | 67 | 1012.1 |
| 20260903205037 | 91 | 107 | 17.0 | 21.0 | 0.00 | 0.00 | 0.00 | 66 | 1012.2 |
| 20260903204533 | 89 | 99 | 13.0 | 15.0 | 0.00 | 0.00 | 0.00 | 69 | 1012.4 |
| 20260903204029 | 90 | 173 | 12.0 | 15.0 | 0.00 | 0.00 | 0.00 | 69 | 1012.5 |
| 20260903203524 | 90 | 157 | 11.0 | 15.0 | 0.00 | 0.00 | 0.00 | 67 | 1012.6 |
| 20260903203024 | 89 | 108 | 9.0 | 14.0 | 0.00 | 0.00 | 0.00 | 71 | 1012.5 |
| 20260903202520 | 87 | 138 | 12.0 | 15.0 | 0.00 | 0.00 | 0.00 | 72 | 1012.7 |
| 20260903202015 | 87 | 123 | 19.0 | 21.0 | 0.00 | 0.00 | 0.00 | 73 | 1012.7 |
| 20260903201509 | 87 | 131 | 12.0 | 14.0 | 0.00 | 0.00 | 0.00 | 73 | 1012.8 |
| 20260903201008 | 87 | 114 | 8.0 | 10.0 | 0.00 | 0.00 | 0.00 | 73 | 1013.1 |
| 20260903200503 | 86 | 136 | 10.0 | 12.0 | 0.00 | 0.00 | 0.00 | 73 | 1013.1 |
| 20260903195958 | 86 | 105 | 9.0 | 14.0 | 0.00 | 0.00 | 0.00 | 73 | 1013.1 |
| 20260903195455 | 86 | 116 | 13.0 | 15.0 | 0.00 | 0.00 | 0.00 | 73 | 1013.0 |
| 20260903194949 | 86 | 117 | 11.0 | 14.0 | 0.00 | 0.00 | 0.00 | 75 | 1013.0 |
| 20260903194445 | 86 | 116 | 14.0 | 19.0 | 0.00 | 0.00 | 0.00 | 76 | 1013.0 |
| 20260903193940 | 86 | 102 | 12.0 | 14.0 | 0.00 | 0.00 | 0.00 | 78 | 1013.1 |
| 20260903193437 | 86 | 119 | 11.0 | 12.0 | 0.00 | 0.00 | 0.00 | 80 | 1013.2 |
| 20260903192931 | 85 | 100 | 11.0 | 15.0 | 0.00 | 0.00 | 0.00 | 82 | 1013.1 |
| 20260903192428 | 85 | 127 | 12.0 | 14.0 | 0.00 | 0.00 | 0.00 | 83 | 1013.4 |
| 20260903191923 | 84 | 130 | 12.0 | 14.0 | 0.00 | 0.00 | 0.00 | 85 | 1013.4 |
| 20260903191420 | 85 | 126 | 2.0 | 3.0 | 0.00 | 0.00 | 0.00 | 85 | 1013.4 |
| 20260903190919 | 85 | 129 | 8.0 | 10.0 | 0.00 | 0.00 | 0.00 | 85 | 1013.5 |
| 20260903190413 | 84 | 97 | 8.0 | 10.0 | 0.00 | 0.00 | 0.00 | 84 | 1013.6 |
| 20260903185913 | 84 | 125 | 12.0 | 17.0 | 0.00 | 0.00 | 0.00 | 84 | 1013.7 |
| 20260903185408 | 84 | 128 | 16.0 | 21.0 | 0.00 | 0.00 | 0.00 | 84 | 1013.8 |
| 20260903184903 | 84 | 129 | 5.0 | 5.0 | 0.00 | 0.00 | 0.00 | 85 | 1014.0 |
| 20260903184400 | 84 | 115 | 6.0 | 10.0 | 0.00 | 0.00 | 0.00 | 86 | 1014.0 |
| 20260903183855 | 84 | 103 | 11.0 | 12.0 | 0.00 | 0.00 | 0.00 | 86 | 1014.1 |
| 20260903183349 | 84 | 106 | 4.0 | 7.0 | 0.00 | 0.00 | 0.00 | 86 | 1014.3 |
| 20260903182848 | 85 | 121 | 2.0 | 3.0 | 0.00 | 0.00 | 0.00 | 84 | 1014.3 |
| 20260903182347 | 86 | 126 | 3.0 | 5.0 | 0.00 | 0.00 | 0.00 | 83 | 1014.5 |
| 20260903181842 | 85 | 79 | 4.0 | 7.0 | 0.00 | 0.00 | 0.00 | 82 | 1014.3 |
| 20260903181337 | 85 | 110 | 9.0 | 12.0 | 0.00 | 0.00 | 0.00 | 83 | 1014.3 |
| 20260903180832 | 85 | 88 | 10.0 | 14.0 | 0.00 | 0.00 | 0.00 | 83 | 1014.3 |
| 20260903180331 | 85 | 75 | 7.0 | 9.0 | 0.00 | 0.00 | 0.00 | 83 | 1014.4 |
| 20260903175826 | 85 | 123 | 11.0 | 14.0 | 0.00 | 0.00 | 0.00 | 83 | 1014.4 |
| 20260903175325 | 85 | 121 | 12.0 | 14.0 | 0.00 | 0.00 | 0.00 | 82 | 1014.4 |
| 20260903174820 | 85 | 133 | 7.0 | 9.0 | 0.00 | 0.00 | 0.00 | 83 | 1014.6 |
| 20260903174315 | 85 | 108 | 12.0 | 14.0 | 0.00 | 0.00 | 0.00 | 82 | 1014.5 |
| 20260903173814 | 85 | 127 | 9.0 | 12.0 | 0.00 | 0.00 | 0.00 | 83 | 1014.6 |
| 20260903173310 | 85 | 133 | 7.0 | 9.0 | 0.00 | 0.00 | 0.00 | 85 | 1014.8 |
| 20260903172806 | 85 | 122 | 7.0 | 10.0 | 0.00 | 0.00 | 0.00 | 85 | 1014.7 |
| 20260903172300 | 86 | 117 | 9.0 | 10.0 | 0.00 | 0.00 | 0.00 | 83 | 1015.0 |
| 20260903171749 | 85 | 127 | 10.0 | 12.0 | 0.00 | 0.00 | 0.00 | 81 | 1015.0 |
| 20260903171245 | 85 | 109 | 9.0 | 10.0 | 0.00 | 0.00 | 0.00 | 83 | 1015.1 |
| 20260903170743 | 84 | 133 | 5.0 | 7.0 | 0.00 | 0.00 | 0.00 | 83 | 1015.2 |
| 20260903170239 | 84 | 104 | 9.0 | 10.0 | 0.00 | 0.00 | 0.00 | 82 | 1014.9 |
| 20260903165737 | 84 | 145 | 5.0 | 5.0 | 0.00 | 0.00 | 0.00 | 85 | 1014.9 |
| 20260903165232 | 84 | 101 | 6.0 | 12.0 | 0.00 | 0.00 | 0.00 | 85 | 1015.1 |
| 20260903164726 | 84 | 122 | 9.0 | 12.0 | 0.00 | 0.00 | 0.00 | 85 | 1015.2 |
| 20260903164223 | 83 | 103 | 10.0 | 12.0 | 0.00 | 0.00 | 0.00 | 86 | 1015.2 |
| 20260903163722 | 83 | 87 | 12.0 | 14.0 | 0.00 | 0.00 | 0.00 | 87 | 1015.1 |
| 20260903163219 | 83 | 106 | 4.0 | 9.0 | 0.00 | 0.00 | 0.00 | 86 | 1015.2 |
| 20260903162714 | 84 | 138 | 7.0 | 10.0 | 0.00 | 0.00 | 0.00 | 82 | 1015.2 |
| 20260903162210 | 85 | 179 | 6.0 | 12.0 | 0.00 | 0.00 | 0.00 | 81 | 1015.2 |
| 20260903161706 | 85 | 125 | 6.0 | 7.0 | 0.00 | 0.00 | 0.00 | 80 | 1015.2 |
| 20260903161201 | 85 | 129 | 8.0 | 10.0 | 0.00 | 0.00 | 0.00 | 79 | 1015.2 |
| 20260903160657 | 85 | 126 | 7.0 | 9.0 | 0.00 | 0.00 | 0.00 | 78 | 1015.2 |
| 20260903160151 | 86 | 147 | 2.0 | 3.0 | 0.00 | 0.00 | 0.00 | 77 | 1015.3 |
| 20260903155649 | 86 | 166 | 3.0 | 3.0 | 0.00 | 0.00 | 0.00 | 76 | 1015.3 |
| 20260903155144 | 85 | 148 | 2.0 | 3.0 | 0.00 | 0.00 | 0.00 | 75 | 1015.2 |
| 20260903154640 | 85 | 176 | 1.0 | 2.0 | 0.00 | 0.00 | 0.00 | 75 | 1015.2 |
| 20260903154136 | 85 | 156 | 2.0 | 3.0 | 0.00 | 0.00 | 0.00 | 76 | 1015.2 |
| 20260903153632 | 85 | 106 | 1.0 | 2.0 | 0.00 | 0.00 | 0.00 | 77 | 1015.2 |
| 20260903153127 | 85 | 140 | 2.0 | 2.0 | 0.00 | 0.00 | 0.00 | 77 | 1015.2 |
| 20260903152623 | 85 | 154 | 4.0 | 5.0 | 0.00 | 0.00 | 0.00 | 77 | 1015.0 |
| 20260903152120 | 85 | 167 | 1.0 | 2.0 | 0.00 | 0.00 | 0.00 | 78 | 1014.9 |
| 20260903151619 | 85 | 210 | 4.0 | 5.0 | 0.00 | 0.00 | 0.00 | 78 | 1014.6 |
| 20260903151114 | 85 | 246 | 4.0 | 10.0 | 0.00 | 0.00 | 0.00 | 78 | 1014.5 |
| 20260903150614 | 85 | 182 | 7.0 | 9.0 | 0.00 | 0.00 | 0.00 | 78 | 1014.4 |
| 20260903150109 | 85 | 151 | 3.0 | 5.0 | 0.00 | 0.00 | 0.00 | 78 | 1014.4 |
| 20260903145608 | 84 | 162 | 7.0 | 10.0 | 0.00 | 0.00 | 0.00 | 79 | 1014.3 |
| 20260903145104 | 84 | 196 | 5.0 | 7.0 | 0.00 | 0.00 | 0.00 | 79 | 1014.1 |
| 20260903144602 | 84 | 252 | 7.0 | 9.0 | 0.00 | 0.00 | 0.00 | 79 | 1014.2 |
| 20260903144059 | 84 | 180 | 6.0 | 9.0 | 0.00 | 0.00 | 0.00 | 80 | 1014.1 |
| 20260903143555 | 84 | 188 | 4.0 | 9.0 | 0.00 | 0.00 | 0.00 | 80 | 1014.2 |
| 20260903143050 | 84 | 241 | 5.0 | 9.0 | 0.00 | 0.00 | 0.00 | 81 | 1014.0 |
| 20260903142545 | 83 | 210 | 7.0 | 9.0 | 0.00 | 0.00 | 0.00 | 82 | 1014.0 |
| 20260903142043 | 83 | 169 | 3.0 | 3.0 | 0.00 | 0.00 | 0.00 | 83 | 1013.9 |
| 20260903141537 | 82 | 169 | 2.0 | 3.0 | 0.00 | 0.00 | 0.00 | 85 | 1014.0 |
| 20260903141033 | 82 | 173 | 4.0 | 7.0 | 0.00 | 0.00 | 0.00 | 85 | 1014.1 |
| 20260903140528 | 82 | 138 | 5.0 | 5.0 | 0.00 | 0.00 | 0.00 | 86 | 1014.1 |
| 20260903140024 | 82 | 175 | 2.0 | 3.0 | 0.00 | 0.00 | 0.00 | 86 | 1014.2 |
| 20260903135519 | 81 | 157 | 2.0 | 3.0 | 0.00 | 0.00 | 0.00 | 87 | 1014.1 |
| 20260903135019 | 81 | 177 | 3.0 | 5.0 | 0.00 | 0.00 | 0.00 | 87 | 1014.2 |
| 20260903134519 | 81 | 164 | 0.0 | 0.0 | 0.00 | 0.00 | 0.00 | 88 | 1014.0 |
| 20260903134015 | 81 | 194 | 3.0 | 3.0 | 0.00 | 0.00 | 0.00 | 88 | 1014.2 |
| 20260903133512 | 81 | 160 | 2.0 | 5.0 | 0.00 | 0.00 | 0.00 | 88 | 1014.0 |
| 20260903133007 | 80 | 162 | 2.0 | 3.0 | 0.00 | 0.00 | 0.00 | 89 | 1014.2 |
| 20260903132503 | 80 | 159 | 5.0 | 9.0 | 0.00 | 0.00 | 0.00 | 89 | 1014.3 |
| 20260903132003 | 80 | 173 | 4.0 | 5.0 | 0.00 | 0.00 | 0.00 | 89 | 1014.3 |
| 20260903131458 | 80 | 193 | 2.0 | 3.0 | 0.00 | 0.00 | 0.00 | 89 | 1014.3 |
| 20260903130956 | 80 | 148 | 2.0 | 2.0 | 0.00 | 0.00 | 0.00 | 90 | 1014.1 |
| 20260903130452 | 80 | 172 | 1.0 | 3.0 | 0.00 | 0.00 | 0.00 | 90 | 1014.0 |
| 20260903125951 | 80 | 202 | 2.0 | 5.0 | 0.00 | 0.00 | 0.00 | 90 | 1014.2 |
| 20260903125450 | 80 | 159 | 2.0 | 2.0 | 0.00 | 0.00 | 0.00 | 90 | 1014.2 |
| 20260903124945 | 80 | 157 | 2.0 | 3.0 | 0.00 | 0.00 | 0.00 | 90 | 1014.1 |
| 20260903124440 | 79 | 173 | 4.0 | 5.0 | 0.00 | 0.00 | 0.00 | 91 | 1013.9 |
| 20260903123939 | 79 | 164 | 2.0 | 3.0 | 0.00 | 0.00 | 0.00 | 91 | 1013.9 |
| 20260903123434 | 79 | 155 | 4.0 | 7.0 | 0.00 | 0.00 | 0.00 | 91 | 1013.8 |
| 20260903122932 | 79 | 192 | 5.0 | 7.0 | 0.00 | 0.00 | 0.00 | 91 | 1013.7 |
| 20260903122427 | 79 | 172 | 2.0 | 3.0 | 0.00 | 0.00 | 0.00 | 91 | 1013.7 |
| 20260903121926 | 79 | 156 | 2.0 | 3.0 | 0.00 | 0.00 | 0.00 | 91 | 1013.7 |
| 20260903121421 | 79 | 176 | 3.0 | 5.0 | 0.00 | 0.00 | 0.00 | 91 | 1013.6 |
| 20260903120918 | 79 | 159 | 0.0 | 0.0 | 0.00 | 0.00 | 0.00 | 92 | 1013.7 |
| 20260903120416 | 79 | 170 | 2.0 | 3.0 | 0.00 | 0.00 | 0.00 | 92 | 1013.6 |
| 20260903115915 | 79 | 168 | 0.0 | 0.0 | 0.00 | 0.00 | 0.00 | 92 | 1013.6 |
| 20260903115415 | 78 | 164 | 0.0 | 2.0 | 0.00 | 0.00 | 0.00 | 92 | 1013.6 |
| 20260903114914 | 78 | 187 | 2.0 | 5.0 | 0.00 | 0.00 | 0.00 | 92 | 1013.6 |
| 20260903114410 | 78 | 156 | 0.0 | 0.0 | 0.00 | 0.00 | 0.00 | 92 | 1013.4 |
| 20260903113906 | 78 | 161 | 0.0 | 0.0 | 0.00 | 0.00 | 0.00 | 92 | 1013.5 |
| 20260903113401 | 78 | 158 | 2.0 | 3.0 | 0.00 | 0.00 | 0.00 | 92 | 1013.5 |
| 20260903112857 | 78 | 158 | 0.0 | 0.0 | 0.00 | 0.00 | 0.00 | 92 | 1013.6 |
| 20260903112352 | 78 | 130 | 2.0 | 5.0 | 0.00 | 0.00 | 0.00 | 92 | 1013.4 |
| 20260903111852 | 78 | 160 | 0.0 | 0.0 | 0.00 | 0.00 | 0.00 | 92 | 1013.5 |
| 20260903111351 | 77 | 159 | 0.0 | 0.0 | 0.00 | 0.00 | 0.00 | 92 | 1013.5 |
| 20260903110848 | 77 | 157 | 0.0 | 0.0 | 0.00 | 0.00 | 0.00 | 92 | 1013.7 |
| 20260903110343 | 77 | 145 | 0.0 | 0.0 | 0.00 | 0.00 | 0.00 | 92 | 1013.7 |
| 20260903105838 | 77 | 174 | 0.0 | 0.0 | 0.00 | 0.00 | 0.00 | 92 | 1013.5 |
| 20260903105333 | 77 | 146 | 0.0 | 0.0 | 0.00 | 0.00 | 0.00 | 92 | 1013.5 |
| 20260903104832 | 77 | 149 | 2.0 | 2.0 | 0.00 | 0.00 | 0.00 | 92 | 1013.6 |
| 20260903104327 | 77 | 167 | 0.0 | 0.0 | 0.00 | 0.00 | 0.00 | 92 | 1013.6 |
| 20260903103824 | 77 | 159 | 3.0 | 3.0 | 0.00 | 0.00 | 0.00 | 92 | 1013.4 |
| 20260903103320 | 77 | 145 | 1.0 | 2.0 | 0.00 | 0.00 | 0.00 | 92 | 1013.7 |
| 20260903102815 | 77 | 128 | 4.0 | 5.0 | 0.00 | 0.00 | 0.00 | 91 | 1013.7 |
| 20260903102309 | 77 | 131 | 3.0 | 3.0 | 0.00 | 0.00 | 0.00 | 91 | 1013.5 |
| 20260903101808 | 77 | 139 | 2.0 | 3.0 | 0.00 | 0.00 | 0.00 | 91 | 1013.7 |
| 20260903101304 | 76 | 136 | 0.0 | 0.0 | 0.00 | 0.00 | 0.00 | 91 | 1013.6 |
| 20260903100759 | 76 | 152 | 1.0 | 2.0 | 0.00 | 0.00 | 0.00 | 91 | 1013.6 |
| 20260903100253 | 76 | 140 | 2.0 | 2.0 | 0.00 | 0.00 | 0.00 | 91 | 1013.5 |
| 20260903095751 | 76 | 131 | 0.0 | 0.0 | 0.00 | 0.00 | 0.00 | 91 | 1013.6 |
| 20260903095245 | 76 | 138 | 1.0 | 2.0 | 0.00 | 0.00 | 0.00 | 91 | 1013.6 |
| 20260903094740 | 76 | 124 | 0.0 | 2.0 | 0.00 | 0.00 | 0.00 | 91 | 1013.6 |
| 20260903094236 | 76 | 142 | 0.0 | 0.0 | 0.00 | 0.00 | 0.00 | 90 | 1013.6 |
| 20260903093731 | 76 | 151 | 0.0 | 0.0 | 0.00 | 0.00 | 0.00 | 90 | 1013.5 |
| 20260903093226 | 76 | 161 | 1.0 | 2.0 | 0.00 | 0.00 | 0.00 | 91 | 1013.6 |
| 20260903092726 | 76 | 157 | 0.0 | 0.0 | 0.00 | 0.00 | 0.00 | 91 | 1013.3 |
| 20260903092220 | 76 | 152 | 0.0 | 0.0 | 0.00 | 0.00 | 0.00 | 90 | 1013.5 |
| 20260903091719 | 76 | 146 | 0.0 | 0.0 | 0.00 | 0.00 | 0.00 | 90 | 1013.7 |
| 20260903091214 | 76 | 125 | 0.0 | 0.0 | 0.00 | 0.00 | 0.00 | 90 | 1013.7 |
| 20260903090709 | 76 | 139 | 0.0 | 0.0 | 0.00 | 0.00 | 0.00 | 89 | 1013.6 |
| 20260903090208 | 76 | 140 | 0.0 | 0.0 | 0.00 | 0.00 | 0.00 | 89 | 1013.7 |
| 20260903085707 | 76 | 142 | 0.0 | 0.0 | 0.00 | 0.00 | 0.00 | 89 | 1013.5 |
| 20260903085203 | 76 | 127 | 0.0 | 0.0 | 0.00 | 0.00 | 0.00 | 88 | 1013.7 |
| 20260903084700 | 77 | 154 | 0.0 | 0.0 | 0.00 | 0.00 | 0.00 | 88 | 1013.6 |
| 20260903084155 | 77 | 149 | 0.0 | 0.0 | 0.00 | 0.00 | 0.00 | 88 | 1013.7 |